Temperature
7 7 7 7 7 7 7 8 8 8 8 8 8 8 9 9 9 9 9 9 9 9 9 9 9 9 9 10 10 10 10 11 11 11 11 11 11 11 11 11 12 12 12
6 6 6 6 6 6 7 7 7 7 7 8 8 8 8 8 8 8 8 8 8 8 8 8 8 8 8 8 9 9 9 10 10 10 10 10 10 11 11 11 11 11 11
6 6 6 6 6 6 6 6 6 6 6 7 7 7 7 7 7 8 8 8 8 8 8 8 8 8 8 8 8 8 8 9 9 9 10 10 10 10 10 10 11 11 11
5 5 5 5 5 5 5 5 5 5 6 6 6 6 6 7 7 7 7 7 7 7 7 7 7 7 7 7 7 7 7 8 8 8 9 9 9 9 10 10 10 10 10
4 4 4 4 4 4 4 4 4 5 5 5 5 5 6 6 6 6 6 6 6 6 6 6 6 6 6 6 6 6 7 7 7 7 8 8 8 9 9 9 9 10 10
3 3 3 3 3 4 4 4 4 4 4 4 4 4 5 5 5 5 5 5 5 5 5 5 5 5 5 6 6 6 6 6 6 7 7 7 7 8 8 8 9 9 9
3 2 2 3 3 3 3 3 3 3 3 3 3 3 4 4 4 4 4 4 4 4 4 4 4 4 5 5 5 5 5 5 6 6 6 6 6 7 7 7 8 8 9
2 2 2 2 2 2 2 2 2 2 2 2 1 1 2 2 3 3 3 3 3 3 3 3 3 4 4 4 4 5 5 5 5 5 5 5 6 6 6 6 7 7 8
1 1 1 1 1 1 1 1 1 1 1 1 0 0 -0 -0 0 1 2 2 2 2 3 3 3 3 3 3 3 4 4 4 4 4 4 5 5 5 5 6 6 6 7
1 0 0 0 0 0 0 0 0 -0 -0 -0 -0 -1 -1 -1 -1 -1 0 1 1 1 2 2 2 2 2 2 2 3 3 3 3 3 4 4 4 5 5 5 5 6 6
-0 -0 -0 -0 -0 -0 -0 -0 -1 -1 -1 -1 -1 -1 -1 -1 -1 -2 -2 -1 -0 0 1 1 1 1 1 1 2 2 2 2 2 3 3 3 4 4 4 4 5 5 5
-1 -1 -1 -1 -1 -1 -1 -1 -1 -1 -1 -1 -2 -2 -2 -2 -2 -2 -3 -2 -2 -1 -0 -0 0 0 0 1 1 1 1 2 2 2 2 2 3 3 4 4 4 4 5
-1 -1 -1 -1 -1 -2 -2 -2 -2 -2 -2 -2 -2 -2 -2 -2 -3 -3 -3 -3 -3 -2 -1 -1 -0 -0 -0 -0 0 0 1 1 1 1 1 2 2 3 3 3 3 4 4
-1 -2 -2 -2 -2 -2 -2 -2 -3 -3 -3 -2 -3 -3 -3 -3 -3 -3 -3 -4 -4 -3 -3 -2 -1 -1 -1 -1 -1 -1 -0 0 0 0 1 1 1 1 2 2 3 3 3
-2 -2 -2 -2 -2 -3 -3 -3 -3 -3 -3 -3 -3 -3 -3 -3 -3 -3 -4 -4 -4 -4 -4 -3 -3 -2 -2 -2 -1 -1 -1 -1 -0 -0 -0 0 0 0 1 1 1 2 2
-3 -3 -3 -3 -3 -3 -3 -3 -3 -3 -3 -3 -4 -4 -4 -4 -4 -4 -4 -4 -4 -5 -5 -4 -3 -3 -3 -2 -2 -2 -2 -1 -1 -1 -1 -1 -1 -0 -0 0 1 1 1
-3 -3 -3 -3 -3 -3 -4 -4 -4 -4 -4 -4 -4 -4 -4 -4 -4 -4 -4 -5 -5 -5 -5 -4 -4 -4 -3 -3 -3 -2 -2 -2 -2 -2 -1 -1 -1 -1 -1 -0 -0 0 0
-4 -4 -4 -4 -4 -4 -4 -4 -4 -4 -5 -5 -5 -5 -5 -5 -5 -5 -5 -5 -5 -5 -5 -5 -5 -4 -4 -4 -3 -3 -3 -3 -3 -2 -2 -2 -2 -2 -1 -1 -1 -1 -0
-4 -4 -4 -4 -5 -5 -5 -5 -5 -5 -5 -5 -5 -5 -5 -5 -5 -5 -5 -5 -5 -5 -5 -6 -5 -5 -5 -4 -4 -4 -3 -3 -3 -3 -3 -2 -2 -2 -2 -2 -2 -1 -1
-5 -5 -5 -5 -5 -5 -5 -5 -6 -6 -6 -6 -6 -6 -6 -6 -6 -6 -6 -6 -6 -6 -6 -6 -6 -6 -5 -5 -5 -4 -4 -3 -3 -3 -3 -3 -3 -3 -3 -2 -2 -2 -2
-5 -6 -6 -6 -6 -6 -6 -6 -6 -7 -6 -6 -6 -6 -6 -6 -6 -6 -6 -6 -6 -6 -6 -6 -6 -6 -6 -6 -5 -5 -5 -4 -4 -4 -4 -4 -3 -3 -3 -3 -3 -3 -2
-6 -6 -6 -6 -6 -7 -7 -7 -7 -7 -7 -7 -7 -7 -7 -7 -7 -7 -7 -7 -6 -6 -6 -6 -6 -6 -6 -6 -6 -6 -6 -6 -5 -5 -5 -4 -4 -4 -4 -4 -3 -3 -3
-6 -7 -7 -7 -7 -7 -7 -7 -7 -7 -7 -7 -7 -7 -7 -7 -7 -7 -7 -7 -7 -7 -7 -7 -7 -7 -7 -6 -6 -6 -6 -6 -6 -6 -6 -5 -5 -5 -4 -4 -4 -4 -4
-7 -7 -7 -7 -7 -7 -7 -8 -8 -8 -8 -8 -8 -8 -8 -8 -8 -8 -7 -7 -7 -7 -7 -7 -7 -7 -7 -7 -7 -7 -7 -7 -6 -6 -6 -6 -5 -5 -5 -5 -5 -4 -4
-8 -8 -8 -8 -8 -8 -8 -8 -8 -8 -8 -8 -8 -8 -8 -8 -8 -8 -8 -8 -8 -7 -7 -8 -7 -7 -7 -7 -7 -7 -7 -7 -7 -7 -7 -7 -6 -6 -6 -5 -5 -5 -5
-8 -9 -8 -8 -8 -8 -8 -8 -8 -9 -9 -8 -8 -8 -8 -8 -8 -8 -8 -8 -8 -8 -8 -8 -8 -7 -7 -7 -7 -8 -8 -8 -8 -8 -7 -8 -7 -7 -7 -6 -6 -6 -5
Wind_Speed
7 7 8 9 9 9 9 8 8 9 9 9 9 9 8 8 8 8 8 9 9 8 8 7 7 6 5 4 5 4 3 3 3 3 3 2 1 1 1 1 2 3 3
7 6 7 8 8 9 8 7 7 6 6 7 7 8 7 7 7 7 8 8 9 9 9 8 7 7 6 6 5 5 4 4 3 3 3 3 2 2 1 1 1 2 3
7 6 6 6 7 8 8 7 7 6 5 6 5 7 6 6 6 6 7 7 8 9 10 10 9 8 8 7 7 6 6 5 4 3 3 3 3 3 3 3 3 3 3
7 7 6 5 6 7 7 5 4 3 4 4 4 4 5 5 5 5 6 7 7 8 9 10 10 9 9 8 8 7 7 6 6 5 4 4 4 4 4 3 4 5 5
7 6 5 6 6 6 6 5 4 3 3 4 4 3 4 4 3 4 5 6 7 8 8 9 11 11 10 9 8 7 7 7 7 6 6 5 5 5 5 4 4 4 6
6 6 5 6 6 5 4 4 3 3 2 3 3 3 3 3 2 3 3 5 6 7 8 9 9 10 10 10 10 9 8 8 8 7 7 6 6 6 5 6 6 6 6
5 5 5 5 5 3 3 3 2 3 3 3 2 3 3 2 1 2 3 4 5 7 8 8 8 9 9 10 10 10 10 9 9 8 8 8 8 7 7 6 7 8 7
5 4 4 4 4 3 3 3 2 2 2 3 2 2 3 3 2 2 2 2 4 6 7 8 8 9 9 9 9 10 11 10 10 10 10 9 9 9 9 8 8 8 9
5 4 4 3 3 2 1 2 2 2 1 2 2 1 1 2 3 2 1 2 3 3 5 7 8 8 9 9 9 10 10 11 11 11 11 10 10 11 10 10 10 9 9
4 4 3 3 3 3 2 2 2 1 0 1 1 1 1 1 2 3 2 2 3 4 3 5 7 8 8 8 9 10 11 11 12 11 11 11 11 12 12 11 12 11 10
3 4 3 3 3 3 3 2 2 2 1 1 1 1 1 1 2 2 4 5 4 3 3 4 5 7 8 8 8 10 11 11 12 12 11 11 12 12 13 13 13 13 13
2 3 3 3 3 3 3 3 2 2 2 1 2 2 2 2 2 2 4 6 6 5 5 4 4 5 7 8 8 12 12 12 12 12 12 12 12 13 13 13 14 13 13
1 2 3 3 3 3 3 3 2 2 2 2 2 3 2 3 3 3 4 6 7 5 4 3 3 5 7 7 9 12 12 11 12 12 11 11 11 12 12 12 12 13 13
2 2 3 3 3 3 3 3 2 2 2 2 4 3 3 3 3 3 4 4 6 5 4 4 3 4 6 8 11 13 11 11 12 12 12 11 10 11 12 12 12 12 12
2 2 3 3 3 3 3 2 2 3 3 3 3 3 3 3 3 3 4 4 5 6 7 4 3 3 7 9 11 11 11 11 12 12 12 11 10 11 12 12 12 11 11
2 3 3 3 3 3 3 2 2 3 3 3 3 3 4 3 3 3 4 4 4 6 7 4 4 5 8 10 12 11 12 13 12 12 12 12 11 11 11 12 12 12 11
2 3 3 3 3 3 3 2 3 3 4 4 4 4 5 4 4 4 4 4 5 5 8 7 6 6 6 7 9 11 11 10 10 12 12 12 12 11 12 12 12 12 12
3 3 3 3 3 3 3 3 4 4 4 5 5 5 6 5 5 5 4 5 5 6 7 9 7 6 7 7 7 7 9 9 9 11 12 12 12 12 12 11 12 12 13
3 3 3 3 4 4 4 5 5 5 5 6 6 6 6 6 6 6 6 6 6 6 6 7 8 7 6 6 6 7 8 7 9 11 12 12 11 12 12 12 12 13 13
3 3 3 4 5 5 5 6 5 6 6 6 6 6 6 7 7 7 7 7 6 6 6 7 7 7 6 5 5 6 7 5 6 8 10 11 11 12 12 12 13 13 13
3 3 4 4 5 5 6 6 6 6 6 6 6 6 7 9 10 8 7 6 6 6 6 7 7 6 6 5 5 5 7 7 6 5 5 6 7 7 9 11 12 13 14
3 3 4 5 5 6 9 10 8 6 5 5 6 6 7 8 9 11 11 11 10 8 7 7 6 7 7 6 5 6 7 7 7 3 4 6 5 6 7 8 12 14 14
3 4 4 5 5 8 11 11 10 6 4 5 6 6 6 7 9 7 10 12 11 13 12 9 8 8 8 7 7 8 7 7 8 5 5 8 5 6 7 10 14 15 15
4 4 5 5 6 8 10 11 10 4 4 6 6 6 7 7 8 9 8 7 8 8 10 8 7 8 8 7 7 7 7 7 7 6 5 7 6 6 7 8 13 14 14
4 5 5 5 5 7 11 11 10 4 5 6 7 7 7 7 11 12 7 7 8 8 10 12 12 11 12 11 9 5 5 5 7 6 4 5 5 6 6 6 9 12 13
5 5 5 5 6 7 11 11 10 4 5 5 6 7 9 10 11 11 6 6 8 8 7 8 8 9 8 8 9 6 5 6 6 5 3 3 5 4 5 5 4 7 9
Wind_Direction
46 40 39 38 35 33 32 28 26 24 23 20 20 18 13 10 9 7 5 10 14 14 11 14 16 16 18 20 21 12 16 16 5 14 14 12 10 37 64 165 183 177 173
53 45 37 34 31 29 28 27 22 19 17 18 14 9 2 4 6 6 9 11 18 20 16 14 13 17 16 12 12 11 5 5 4 358 354 340 327 301 271 249 196 191 197
54 50 40 31 25 26 25 25 25 21 17 15 5 359 357 0 4 10 16 17 19 23 23 18 14 16 15 9 6 3 2 357 350 343 333 333 324 303 280 261 239 221 207
53 54 42 27 23 29 27 22 22 12 6 1 350 343 345 350 0 13 22 25 27 25 23 20 14 10 8 5 356 350 346 346 346 341 336 322 317 316 296 276 256 235 222
47 53 44 28 26 30 28 20 13 4 357 353 339 336 337 336 348 16 28 32 31 28 23 18 15 8 3 357 349 342 336 333 326 327 317 318 312 311 305 281 267 254 240
45 48 43 30 31 30 23 17 5 8 357 344 337 335 322 321 359 39 36 33 33 29 24 21 18 11 4 357 347 338 331 325 318 313 311 296 292 296 299 288 267 258 253
44 48 37 30 28 27 15 12 8 7 7 0 0 342 327 324 36 44 33 35 31 24 22 16 13 9 357 351 348 342 332 322 313 309 303 300 288 284 288 293 283 263 253
41 43 36 24 20 20 19 16 24 7 360 15 14 352 338 339 12 2 11 29 25 18 13 3 3 0 352 347 339 340 333 322 315 307 298 292 290 286 279 278 285 277 260
37 34 29 23 16 23 10 358 9 20 357 355 23 37 347 311 321 311 347 9 13 9 358 351 348 345 343 340 337 334 330 325 314 308 297 288 283 284 283 276 273 281 271
24 21 19 15 8 10 358 342 3 327 319 322 332 346 263 269 294 312 317 342 347 336 333 338 332 330 330 334 330 328 326 322 314 306 303 293 286 283 279 281 275 270 276
11 12 7 9 358 352 345 341 339 330 300 263 279 292 289 291 255 263 293 313 322 312 318 318 313 318 323 326 326 325 323 318 312 307 303 298 291 287 283 278 280 275 270
353 0 359 358 349 341 328 321 314 309 301 274 266 266 262 260 264 266 283 299 303 303 303 298 306 310 316 319 323 327 324 318 312 307 306 304 296 290 288 286 280 279 274
311 322 343 337 332 322 316 320 314 296 288 277 262 264 263 260 265 267 273 289 295 299 290 284 288 297 310 319 319 320 320 319 317 312 309 311 310 303 294 288 287 283 282
271 297 322 326 320 315 315 317 305 292 293 279 284 274 269 269 266 265 269 281 293 292 284 280 288 287 307 311 312 315 315 315 313 314 311 308 309 310 304 299 294 289 290
284 300 307 307 310 306 302 297 284 285 284 279 277 280 275 273 267 266 268 262 267 284 287 280 288 300 308 306 306 307 306 307 309 310 311 308 304 303 301 299 295 294 292
281 291 297 295 297 295 286 282 282 283 279 280 282 284 283 280 276 275 270 271 263 265 277 278 278 290 300 301 304 297 303 307 308 306 306 303 300 296 293 293 292 289 288
268 271 277 282 283 286 282 270 269 268 267 275 280 279 280 281 279 276 275 273 270 266 272 282 281 291 289 293 302 301 299 299 298 301 300 299 297 292 290 288 287 286 285
262 266 271 273 279 284 281 263 264 267 261 267 273 276 281 283 281 279 275 273 272 268 266 278 285 289 286 289 292 294 300 299 296 298 298 298 295 290 287 285 286 284 283
258 269 269 266 271 274 271 267 256 257 257 260 264 265 271 274 277 277 274 272 271 273 267 270 279 282 284 290 293 293 292 290 294 297 296 296 295 293 291 288 289 286 281
253 259 266 267 268 272 271 269 268 263 260 264 264 263 264 263 267 269 271 268 268 269 269 269 272 277 277 278 278 290 296 288 291 299 293 293 296 296 291 291 288 286 282
263 263 268 272 277 273 264 260 258 261 258 261 266 266 266 270 274 274 275 272 269 267 271 266 269 274 274 281 277 284 287 292 285 280 280 286 291 289 288 288 287 282 279
270 271 268 270 275 276 277 277 273 263 260 260 267 272 274 276 283 289 290 289 285 280 277 267 266 270 274 276 276 279 281 288 288 272 273 284 280 277 284 282 281 281 279
264 268 267 266 269 274 280 281 280 277 257 265 267 271 277 279 288 280 285 291 290 289 287 283 273 271 274 271 271 273 271 275 278 282 281 282 277 276 283 283 285 281 279
262 264 268 264 268 275 283 285 286 280 262 266 269 266 268 273 276 277 275 279 278 279 284 282 268 271 271 268 262 268 272 279 284 284 273 275 281 281 290 286 283 282 281
268 264 263 260 264 278 286 286 288 271 271 269 272 269 269 265 277 285 285 281 286 288 292 287 285 285 289 287 283 276 273 275 283 286 270 261 279 291 290 285 284 286 288
267 272 276 269 266 272 283 287 290 269 274 274 272 272 278 280 283 289 281 272 279 285 290 295 295 296 295 294 290 278 267 267 280 282 275 273 283 295 291 284 290 300 297
Height
1526 1526 1526 1526 1525 1525 1525 1526 1526 1526 1526 1527 1527 1527 1527 1528 1528 1528 1529 1529 1530 1530 1530 1531 1531 1532 1532 1533 1533 1534 1535 1535 1536 1537 1538 1539 1540 1541 1542 1543 1544 1545 1546
1525 1525 1524 1524 1524 1524 1524 1524 1524 1524 1524 1524 1524 1525 1525 1525 1525 1526 1526 1527 1527 1527 1528 1528 1529 1529 1530 1530 1531 1531 1532 1532 1533 1534 1535 1536 1537 1538 1539 1540 1541 1542 1543
1523 1523 1523 1523 1522 1522 1522 1522 1522 1522 1522 1522 1522 1522 1522 1522 1523 1523 1523 1523 1524 1524 1525 1525 1526 1526 1527 1527 1528 1528 1529 1530 1531 1531 1532 1533 1534 1535 1536 1537 1538 1539 1540
1522 1521 1521 1521 1521 1520 1520 1520 1520 1519 1519 1519 1519 1520 1520 1519 1520 1520 1520 1520 1521 1521 1522 1522 1523 1523 1523 1524 1524 1525 1526 1526 1527 1528 1528 1529 1530 1531 1532 1533 1534 1535 1537
1520 1520 1519 1519 1519 1519 1518 1518 1518 1517 1516 1516 1516 1516 1516 1516 1516 1517 1517 1517 1518 1518 1519 1519 1519 1520 1520 1520 1521 1522 1522 1523 1524 1524 1525 1525 1526 1527 1528 1529 1530 1531 1533
1518 1518 1518 1517 1517 1517 1516 1516 1515 1515 1514 1513 1513 1513 1513 1513 1513 1513 1514 1514 1515 1515 1515 1516 1516 1516 1516 1517 1517 1518 1518 1519 1520 1520 1521 1521 1522 1523 1524 1525 1526 1527 1528
1516 1516 1516 1515 1515 1514 1514 1513 1513 1512 1512 1511 1510 1509 1509 1509 1509 1509 1510 1511 1511 1511 1512 1512 1512 1512 1513 1513 1513 1513 1514 1515 1515 1516 1517 1517 1518 1519 1520 1521 1521 1523 1524
1514 1514 1513 1513 1513 1512 1511 1511 1511 1510 1509 1509 1508 1506 1506 1506 1505 1506 1507 1507 1507 1508 1508 1508 1508 1508 1508 1508 1509 1509 1509 1510 1510 1511 1512 1513 1513 1514 1515 1516 1517 1518 1519
1511 1511 1511 1511 1510 1509 1509 1508 1508 1507 1507 1507 1507 1507 1506 1503 1502 1502 1502 1503 1504 1504 1504 1504 1504 1504 1504 1504 1504 1504 1505 1505 1506 1506 1507 1508 1509 1509 1510 1511 1512 1513 1514
1509 1508 1508 1508 1508 1507 1506 1506 1506 1505 1505 1504 1505 1505 1505 1504 1503 1499 1498 1499 1500 1500 1500 1500 1500 1500 1500 1500 1500 1499 1500 1500 1501 1501 1502 1503 1503 1504 1505 1506 1507 1508 1509
1506 1506 1506 1505 1505 1504 1504 1503 1503 1503 1502 1502 1502 1502 1502 1501 1500 1499 1495 1495 1495 1496 1496 1495 1495 1496 1496 1495 1495 1495 1495 1495 1496 1496 1497 1497 1498 1499 1500 1501 1501 1502 1504
1503 1503 1503 1502 1502 1501 1501 1500 1500 1499 1499 1499 1499 1498 1498 1497 1497 1496 1494 1492 1491 1491 1491 1491 1491 1491 1491 1491 1490 1490 1490 1490 1490 1491 1491 1492 1492 1493 1494 1494 1496 1496 1497
1499 1499 1499 1499 1499 1498 1498 1497 1497 1496 1496 1495 1495 1495 1494 1494 1494 1493 1492 1489 1488 1487 1486 1486 1487 1487 1487 1486 1485 1485 1484 1485 1485 1485 1486 1486 1486 1487 1487 1488 1489 1490 1491
1495 1495 1495 1495 1495 1494 1494 1494 1493 1493 1492 1491 1491 1491 1490 1490 1490 1489 1489 1488 1485 1483 1482 1482 1482 1483 1482 1482 1481 1480 1479 1479 1479 1479 1480 1479 1480 1480 1481 1481 1482 1483 1484
1491 1492 1492 1491 1491 1490 1490 1490 1489 1489 1488 1487 1487 1486 1486 1485 1486 1485 1485 1485 1484 1481 1478 1477 1478 1478 1478 1477 1476 1475 1474 1474 1474 1474 1474 1474 1474 1474 1475 1475 1475 1476 1477
1488 1488 1487 1487 1487 1486 1486 1485 1485 1485 1484 1484 1483 1482 1481 1481 1481 1481 1480 1480 1479 1478 1475 1473 1473 1473 1473 1472 1471 1470 1469 1468 1468 1468 1468 1468 1468 1468 1469 1469 1470 1470 1471
1484 1483 1483 1483 1482 1482 1481 1481 1480 1480 1479 1479 1478 1477 1477 1477 1476 1476 1476 1475 1474 1474 1471 1469 1469 1469 1468 1467 1466 1465 1464 1463 1463 1463 1463 1462 1462 1463 1463 1463 1464 1464 1465
1479 1479 1479 1478 1478 1477 1477 1476 1476 1475 1475 1474 1473 1473 1472 1472 1472 1471 1471 1470 1469 1469 1467 1464 1464 1464 1463 1462 1461 1460 1459 1458 1458 1457 1457 1457 1457 1457 1457 1457 1458 1458 1458
1475 1475 1474 1474 1473 1473 1472 1472 1471 1470 1470 1469 1469 1468 1468 1468 1467 1466 1466 1465 1464 1464 1462 1461 1459 1458 1457 1457 1456 1455 1454 1453 1452 1452 1452 1452 1451 1451 1451 1451 1451 1452 1452
1471 1470 1470 1469 1469 1468 1468 1467 1467 1466 1465 1465 1465 1464 1463 1463 1462 1461 1460 1460 1459 1458 1457 1455 1453 1452 1451 1451 1451 1449 1448 1447 1447 1447 1446 1446 1445 1445 1445 1445 1445 1445 1445
1466 1466 1465 1464 1464 1463 1463 1463 1462 1461 1461 1460 1460 1459 1459 1458 1457 1457 1456 1455 1454 1453 1451 1449 1447 1446 1446 1446 1445 1444 1443 1441 1440 1441 1440 1439 1439 1438 1438 1438 1438 1438 1438
1461 1461 1460 1460 1459 1459 1459 1459 1458 1457 1456 1456 1455 1454 1454 1453 1452 1452 1451 1450 1450 1448 1446 1444 1442 1441 1440 1440 1440 1439 1438 1436 1434 1435 1434 1433 1433 1432 1431 1431 1431 1431 1431
1456 1456 1455 1455 1454 1454 1454 1454 1454 1454 1452 1451 1450 1449 1449 1448 1447 1446 1445 1445 1444 1443 1442 1440 1438 1436 1435 1435 1434 1433 1433 1431 1430 1429 1429 1426 1426 1425 1425 1425 1425 1425 1424
1452 1451 1450 1450 1449 1449 1450 1449 1449 1448 1447 1446 1445 1445 1444 1443 1442 1441 1440 1439 1438 1436 1435 1434 1433 1431 1431 1430 1430 1429 1427 1426 1424 1424 1424 1421 1420 1419 1418 1418 1418 1418 1417
1447 1446 1446 1445 1445 1444 1445 1445 1445 1443 1442 1441 1441 1440 1439 1438 1437 1437 1435 1434 1432 1430 1429 1428 1427 1426 1425 1424 1424 1423 1421 1420 1418 1417 1418 1416 1414 1413 1411 1411 1411 1411 1410
1443 1442 1441 1441 1440 1440 1440 1440 1440 1439 1437 1436 1436 1435 1434 1433 1433 1432 1431 1429 1426 1425 1424 1422 1421 1419 1419 1418 1418 1418 1416 1415 1413 1411 1411 1411 1409 1408 1405 1403 1404 1404 1403